Powrót do katalogu

COSMOS 1275 DEB

AktywnyPO
NORAD 42122·DEBRIS·🇷🇺 Russia

Wystrzelony Jun 4, 1981 z Plesetsk Cosmodrome

Loading…

Następne Przeloty (najbliższe 24 godziny)

TLE

ŚwieżeSource: Space-Track

Epoka: Sep 13, 2026, 09:31 UTC

1 42122U 81053QJ  26256.39686381  .00001244  00000-0  10121-2 0  9991
2 42122  82.9351 296.3111 0087301 280.3429  78.7901 13.87462617645485

Śledź COSMOS 1275 DEB w czasie rzeczywistym z AllMySat

Download on the App Store